Weather History for Manchester, NH

Change the Weather History Date:

Thursday, May 1, 2014

  Actual Average Record
Temperature  
Mean Temperature 52 °F -  
Max Temperature 64 °F 65 °F 87 °F (2001)
Min Temperature 41 °F 39 °F 26 °F (1952)
Degree Days  
Heating Degree Days 12    
Growing Degree Days 2 (Base 50)    
Moisture  
Dew Point 47 °F    
Average Humidity 88    
Maximum Humidity 97    
Minimum Humidity 67    
Precipitation  
Precipitation 0.49 in - - ()
Sea Level Pressure  
Sea Level Pressure 29.85 in    
Wind  
Wind Speed 5 mph (NNE)    
Max Wind Speed 8 mph    
Max Gust Speed -    
Visibility 5 miles    
Events Fog , Rain , Thunderstorm    
Averages and records for this station are not official NWS values.
T = Trace of Precipitation, MM = Missing Value Source: NWS Daily Summary

Daily Weather History Graph

Daily Weather History Graph

Search for Another Location

Airport:

Trip Planner

Search our weather history database for the weather conditions in past years. The results will help you decide how hot, cold, wet, or windy it might be!

Date:

Astronomy

May. 01, 2014 Rise Set
Actual Time 5:39 AM EDT 7:46 PM EDT
Civil Twilight 5:08 AM EDT 8:17 PM EDT
Nautical Twilight 4:30 AM EDT 8:55 PM EDT
Astronomical Twilight 3:49 AM EDT 9:38 PM EDT
Moon 7:23 AM EDT (5/1) 10:18 PM EDT (5/1)
Length of Visible Light 15h 08m
Length of Day
14h 06m
Waxing Crescent, 6% of the Moon is Illuminated
May 1
Waxing Crescent
May 6
First Quarter
May 14
Full
May 21
Last Quarter
May 28
New

Hourly Weather History & Observations

Time (EDT) Temp. Windchill Dew Point Humidity Pressure Visibility Wind Dir Wind Speed Gust Speed Precip Events Conditions
12:53 AM 41.0 °F 38.0 °F 39.9 °F 96% 30.20 in 1.0 mi East 4.6 mph - 0.00 in Rain Light Rain
1:53 AM 42.1 °F 38.4 °F 39.9 °F 92% 30.15 in 2.0 mi ENE 5.8 mph - 0.05 in Rain Rain
2:53 AM 42.1 °F 40.2 °F 39.9 °F 92% 30.11 in 2.0 mi NNE 3.5 mph - 0.05 in Rain Rain
3:53 AM 42.1 °F 38.4 °F 39.9 °F 92% 30.06 in 3.0 mi NE 5.8 mph - 0.11 in Rain Rain
4:53 AM 42.1 °F 39.2 °F 39.9 °F 92% 30.03 in 2.0 mi NE 4.6 mph - 0.11 in Rain Rain
5:31 AM 42.1 °F 38.4 °F 41.0 °F 96% 29.96 in 3.0 mi NNE 5.8 mph - 0.03 in Rain Light Rain
5:53 AM 43.0 °F 39.5 °F 41.0 °F 93% 29.99 in 1.5 mi NE 5.8 mph - 0.04 in Rain Light Rain
6:53 AM 43.0 °F 40.3 °F 41.0 °F 93% 29.95 in 1.0 mi NE 4.6 mph - 0.04 in Rain Light Rain
7:37 AM 43.0 °F 38.8 °F 42.1 °F 97% 29.89 in 2.0 mi North 6.9 mph - 0.05 in   Overcast
7:53 AM 43.0 °F 38.8 °F 42.1 °F 97% 29.93 in 2.0 mi North 6.9 mph - 0.06 in Rain Light Rain
8:34 AM 44.1 °F 40.8 °F 43.0 °F 96% 29.86 in 1.0 mi North 5.8 mph - 0.00 in   Overcast
8:53 AM 45.0 °F 40.6 °F 43.0 °F 93% 29.89 in 1.0 mi North 8.1 mph - 0.00 in   Overcast
9:07 AM 45.0 °F 41.8 °F 43.0 °F 93% 29.85 in 1.0 mi North 5.8 mph - N/A   Overcast
9:53 AM 45.0 °F 40.6 °F 44.1 °F 97% 29.87 in 1.0 mi NNW 8.1 mph - 0.01 in Rain Light Rain
10:41 AM 46.9 °F - 45.0 °F 93% 29.80 in 2.0 mi NNW 5.8 mph - 0.00 in   Overcast
10:53 AM 46.9 °F - 45.0 °F 93% 29.84 in 2.0 mi NW 5.8 mph - 0.00 in   Overcast
11:53 AM 48.9 °F - 46.0 °F 90% 29.83 in 2.5 mi NNW 6.9 mph - N/A   Overcast
12:53 PM 48.9 °F - 46.9 °F 93% 29.83 in 3.0 mi Variable 4.6 mph - N/A   Overcast
1:53 PM 53.1 °F - 46.9 °F 80% 29.79 in 10.0 mi NNW 4.6 mph - N/A   Mostly Cloudy
2:41 PM 55.9 °F - 48.0 °F 75% 29.72 in 10.0 mi Calm Calm - N/A   Mostly Cloudy
2:53 PM 55.0 °F - 48.0 °F 77% 29.76 in 10.0 mi SE 3.5 mph - N/A   Overcast
3:53 PM 59.0 °F - 50.0 °F 72% 29.74 in 10.0 mi Calm Calm - N/A   Scattered Clouds
4:53 PM 61.0 °F - 52.0 °F 72% 29.72 in 10.0 mi SE 5.8 mph - N/A   Scattered Clouds
5:53 PM 64.0 °F - 53.1 °F 67% 29.70 in 10.0 mi South 8.1 mph - N/A   Partly Cloudy
6:53 PM 63.0 °F - 54.0 °F 72% 29.69 in 10.0 mi SSE 3.5 mph - N/A   Partly Cloudy
7:53 PM 61.0 °F - 54.0 °F 78% 29.69 in 10.0 mi SE 3.5 mph - N/A   Partly Cloudy
8:53 PM 57.9 °F - 55.0 °F 90% 29.70 in 10.0 mi Calm Calm - 0.02 in   Mostly Cloudy
9:53 PM 60.1 °F - 55.9 °F 86% 29.71 in 10.0 mi Calm Calm - N/A Thunderstorm Mostly Cloudy
10:09 PM 59.0 °F - 55.0 °F 87% 29.68 in 10.0 mi Calm Calm - N/A   Overcast
10:53 PM 57.0 °F - 55.0 °F 93% 29.70 in 10.0 mi Calm Calm - N/A   Scattered Clouds
11:53 PM 55.0 °F - 54.0 °F 96% 29.71 in 1.0 mi North 3.5 mph - N/A Fog Patches of Fog